<?xml version="1.0" encoding="UTF-8" standalone="no" ?>
<gpx xmlns="http://www.topografix.com/GPX/1/1" xmlns:xsi="http://www.w3.org/2001/XMLSchema-instance" xsi:schemaLocation="http://www.topografix.com/GPX/1/1 http://www.topografix.com/GPX/1/1/gpx.xsd" version="1.1" creator="VisuGPX - https://www.visugpx.com">
  <metadata>
    <name>sdfg</name>
  </metadata>
  <trk>
    <name><![CDATA[Morez - Gros Crétet - Fort du Risoux - Lac des Rousses - Les Rousses sur TraceDeTrail.fr]]></name>
    <extensions>
      <line xmlns="http://www.topografix.com/GPX/gpx_style/0/2">
        <color>0000FF</color>
        <width>4</width>
      </line>
    </extensions>
    <trkseg>
      <trkpt lat="46.46495" lon="6.03691">
        <ele>1100</ele>
        <time>2000-01-01T02:49:43.000Z</time>
      </trkpt>
      <trkpt lat="46.46481" lon="6.03704">
        <ele>1099</ele>
        <time>2000-01-01T02:49:33.000Z</time>
      </trkpt>
      <trkpt lat="46.46505" lon="6.03762">
        <ele>1098</ele>
        <time>2000-01-01T02:49:23.000Z</time>
      </trkpt>
      <trkpt lat="46.4652" lon="6.03797">
        <ele>1094</ele>
        <time>2000-01-01T02:49:13.000Z</time>
      </trkpt>
      <trkpt lat="46.46534" lon="6.03824">
        <ele>1094</ele>
        <time>2000-01-01T02:49:03.000Z</time>
      </trkpt>
      <trkpt lat="46.46541" lon="6.03854">
        <ele>1095</ele>
        <time>2000-01-01T02:48:53.000Z</time>
      </trkpt>
      <trkpt lat="46.46542" lon="6.03921">
        <ele>1094</ele>
        <time>2000-01-01T02:48:43.000Z</time>
      </trkpt>
      <trkpt lat="46.46544" lon="6.03957">
        <ele>1094</ele>
        <time>2000-01-01T02:48:33.000Z</time>
      </trkpt>
      <trkpt lat="46.46549" lon="6.03978">
        <ele>1097.4</ele>
        <time>2000-01-01T02:48:23.000Z</time>
      </trkpt>
      <trkpt lat="46.46554" lon="6.03986">
        <ele>1099</ele>
        <time>2000-01-01T02:48:13.000Z</time>
      </trkpt>
      <trkpt lat="46.46582" lon="6.04029">
        <ele>1101</ele>
        <time>2000-01-01T02:48:03.000Z</time>
      </trkpt>
      <trkpt lat="46.46623" lon="6.04078">
        <ele>1102</ele>
        <time>2000-01-01T02:47:53.000Z</time>
      </trkpt>
      <trkpt lat="46.46645" lon="6.04106">
        <ele>1104</ele>
        <time>2000-01-01T02:47:43.000Z</time>
      </trkpt>
      <trkpt lat="46.4666" lon="6.04133">
        <ele>1104</ele>
        <time>2000-01-01T02:47:33.000Z</time>
      </trkpt>
      <trkpt lat="46.46695" lon="6.04214">
        <ele>1092.7</ele>
        <time>2000-01-01T02:47:23.000Z</time>
      </trkpt>
      <trkpt lat="46.46701" lon="6.04233">
        <ele>1103</ele>
        <time>2000-01-01T02:47:13.000Z</time>
      </trkpt>
      <trkpt lat="46.46711" lon="6.04305">
        <ele>1088.1</ele>
        <time>2000-01-01T02:47:03.000Z</time>
      </trkpt>
      <trkpt lat="46.46705" lon="6.04323">
        <ele>1090</ele>
        <time>2000-01-01T02:46:53.000Z</time>
      </trkpt>
      <trkpt lat="46.46695" lon="6.04358">
        <ele>1090</ele>
        <time>2000-01-01T02:46:43.000Z</time>
      </trkpt>
      <trkpt lat="46.46689" lon="6.04394">
        <ele>1086.9</ele>
        <time>2000-01-01T02:46:33.000Z</time>
      </trkpt>
      <trkpt lat="46.46694" lon="6.04408">
        <ele>1091</ele>
        <time>2000-01-01T02:46:23.000Z</time>
      </trkpt>
      <trkpt lat="46.4675" lon="6.04417">
        <ele>1090</ele>
        <time>2000-01-01T02:46:13.000Z</time>
      </trkpt>
      <trkpt lat="46.4678" lon="6.04421">
        <ele>1082</ele>
        <time>2000-01-01T02:46:03.000Z</time>
      </trkpt>
      <trkpt lat="46.46795" lon="6.04441">
        <ele>1076</ele>
        <time>2000-01-01T02:45:53.000Z</time>
      </trkpt>
      <trkpt lat="46.46806" lon="6.04447">
        <ele>1067</ele>
        <time>2000-01-01T02:45:43.000Z</time>
      </trkpt>
      <trkpt lat="46.46806" lon="6.04471">
        <ele>1070</ele>
        <time>2000-01-01T02:45:33.000Z</time>
      </trkpt>
      <trkpt lat="46.4679" lon="6.0451">
        <ele>1066</ele>
        <time>2000-01-01T02:45:23.000Z</time>
      </trkpt>
      <trkpt lat="46.46776" lon="6.04542">
        <ele>1060</ele>
        <time>2000-01-01T02:45:13.000Z</time>
      </trkpt>
      <trkpt lat="46.4676" lon="6.04554">
        <ele>1060</ele>
        <time>2000-01-01T02:45:03.000Z</time>
      </trkpt>
      <trkpt lat="46.4675" lon="6.04588">
        <ele>1052</ele>
        <time>2000-01-01T02:44:53.000Z</time>
      </trkpt>
      <trkpt lat="46.4674" lon="6.0462">
        <ele>1049</ele>
        <time>2000-01-01T02:44:43.000Z</time>
      </trkpt>
      <trkpt lat="46.46716" lon="6.04651">
        <ele>1051.6</ele>
        <time>2000-01-01T02:44:33.000Z</time>
      </trkpt>
      <trkpt lat="46.46711" lon="6.04675">
        <ele>1047</ele>
        <time>2000-01-01T02:44:23.000Z</time>
      </trkpt>
      <trkpt lat="46.46689" lon="6.04727">
        <ele>1048</ele>
        <time>2000-01-01T02:44:13.000Z</time>
      </trkpt>
      <trkpt lat="46.46674" lon="6.04755">
        <ele>1049</ele>
        <time>2000-01-01T02:44:03.000Z</time>
      </trkpt>
      <trkpt lat="46.46656" lon="6.04772">
        <ele>1051</ele>
        <time>2000-01-01T02:43:53.000Z</time>
      </trkpt>
      <trkpt lat="46.46622" lon="6.04812">
        <ele>1055</ele>
        <time>2000-01-01T02:43:43.000Z</time>
      </trkpt>
      <trkpt lat="46.466" lon="6.04857">
        <ele>1055</ele>
        <time>2000-01-01T02:43:33.000Z</time>
      </trkpt>
      <trkpt lat="46.46574" lon="6.04883">
        <ele>1052</ele>
        <time>2000-01-01T02:43:23.000Z</time>
      </trkpt>
      <trkpt lat="46.46554" lon="6.04904">
        <ele>1049</ele>
        <time>2000-01-01T02:43:13.000Z</time>
      </trkpt>
      <trkpt lat="46.4653" lon="6.04922">
        <ele>1047</ele>
        <time>2000-01-01T02:43:03.000Z</time>
      </trkpt>
      <trkpt lat="46.46509" lon="6.04939">
        <ele>1040</ele>
        <time>2000-01-01T02:42:53.000Z</time>
      </trkpt>
      <trkpt lat="46.46487" lon="6.04968">
        <ele>1025</ele>
        <time>2000-01-01T02:42:43.000Z</time>
      </trkpt>
      <trkpt lat="46.46474" lon="6.04992">
        <ele>1027.7</ele>
        <time>2000-01-01T02:42:33.000Z</time>
      </trkpt>
      <trkpt lat="46.46468" lon="6.05002">
        <ele>1021</ele>
        <time>2000-01-01T02:42:23.000Z</time>
      </trkpt>
      <trkpt lat="46.46458" lon="6.05007">
        <ele>1029.3</ele>
        <time>2000-01-01T02:42:13.000Z</time>
      </trkpt>
      <trkpt lat="46.46455" lon="6.05014">
        <ele>1030.1</ele>
        <time>2000-01-01T02:42:03.000Z</time>
      </trkpt>
      <trkpt lat="46.46456" lon="6.05023">
        <ele>1030.2</ele>
        <time>2000-01-01T02:41:53.000Z</time>
      </trkpt>
      <trkpt lat="46.46459" lon="6.05026">
        <ele>1020</ele>
        <time>2000-01-01T02:41:43.000Z</time>
      </trkpt>
      <trkpt lat="46.4646" lon="6.05037">
        <ele>1029.7</ele>
        <time>2000-01-01T02:41:33.000Z</time>
      </trkpt>
      <trkpt lat="46.46472" lon="6.05047">
        <ele>1020</ele>
        <time>2000-01-01T02:41:23.000Z</time>
      </trkpt>
      <trkpt lat="46.4649" lon="6.05054">
        <ele>1023.3</ele>
        <time>2000-01-01T02:41:13.000Z</time>
      </trkpt>
      <trkpt lat="46.465" lon="6.0507">
        <ele>1019</ele>
        <time>2000-01-01T02:41:03.000Z</time>
      </trkpt>
      <trkpt lat="46.46511" lon="6.05086">
        <ele>1020</ele>
        <time>2000-01-01T02:40:53.000Z</time>
      </trkpt>
      <trkpt lat="46.46513" lon="6.051">
        <ele>1019</ele>
        <time>2000-01-01T02:40:43.000Z</time>
      </trkpt>
      <trkpt lat="46.4652" lon="6.05114">
        <ele>1020.2</ele>
        <time>2000-01-01T02:40:33.000Z</time>
      </trkpt>
      <trkpt lat="46.46522" lon="6.05125">
        <ele>1018</ele>
        <time>2000-01-01T02:40:23.000Z</time>
      </trkpt>
      <trkpt lat="46.46515" lon="6.0517">
        <ele>1022.5</ele>
        <time>2000-01-01T02:40:13.000Z</time>
      </trkpt>
      <trkpt lat="46.46522" lon="6.05187">
        <ele>1011</ele>
        <time>2000-01-01T02:40:03.000Z</time>
      </trkpt>
      <trkpt lat="46.4653" lon="6.05189">
        <ele>1024.7</ele>
        <time>2000-01-01T02:39:53.000Z</time>
      </trkpt>
      <trkpt lat="46.46546" lon="6.0519">
        <ele>1011</ele>
        <time>2000-01-01T02:39:43.000Z</time>
      </trkpt>
      <trkpt lat="46.46576" lon="6.0517">
        <ele>1023</ele>
        <time>2000-01-01T02:39:33.000Z</time>
      </trkpt>
      <trkpt lat="46.466" lon="6.05154">
        <ele>1030</ele>
        <time>2000-01-01T02:39:23.000Z</time>
      </trkpt>
      <trkpt lat="46.46637" lon="6.05138">
        <ele>1037</ele>
        <time>2000-01-01T02:39:13.000Z</time>
      </trkpt>
      <trkpt lat="46.46664" lon="6.05136">
        <ele>1042</ele>
        <time>2000-01-01T02:39:03.000Z</time>
      </trkpt>
      <trkpt lat="46.46689" lon="6.05127">
        <ele>1044</ele>
        <time>2000-01-01T02:38:53.000Z</time>
      </trkpt>
      <trkpt lat="46.46712" lon="6.05118">
        <ele>1046</ele>
        <time>2000-01-01T02:38:43.000Z</time>
      </trkpt>
      <trkpt lat="46.46738" lon="6.05119">
        <ele>1046</ele>
        <time>2000-01-01T02:38:33.000Z</time>
      </trkpt>
      <trkpt lat="46.46751" lon="6.05154">
        <ele>1048</ele>
        <time>2000-01-01T02:38:23.000Z</time>
      </trkpt>
      <trkpt lat="46.46737" lon="6.05176">
        <ele>1051</ele>
        <time>2000-01-01T02:38:13.000Z</time>
      </trkpt>
      <trkpt lat="46.46765" lon="6.052">
        <ele>1053</ele>
        <time>2000-01-01T02:38:03.000Z</time>
      </trkpt>
      <trkpt lat="46.46797" lon="6.05216">
        <ele>1061</ele>
        <time>2000-01-01T02:37:53.000Z</time>
      </trkpt>
      <trkpt lat="46.46808" lon="6.05248">
        <ele>1081</ele>
        <time>2000-01-01T02:37:43.000Z</time>
      </trkpt>
      <trkpt lat="46.46819" lon="6.05278">
        <ele>1088</ele>
        <time>2000-01-01T02:37:33.000Z</time>
      </trkpt>
      <trkpt lat="46.46839" lon="6.05332">
        <ele>1101</ele>
        <time>2000-01-01T02:37:23.000Z</time>
      </trkpt>
      <trkpt lat="46.46853" lon="6.05368">
        <ele>1106</ele>
        <time>2000-01-01T02:37:13.000Z</time>
      </trkpt>
      <trkpt lat="46.46887" lon="6.05394">
        <ele>1111</ele>
        <time>2000-01-01T02:37:03.000Z</time>
      </trkpt>
      <trkpt lat="46.46916" lon="6.05415">
        <ele>1116</ele>
        <time>2000-01-01T02:36:53.000Z</time>
      </trkpt>
      <trkpt lat="46.46944" lon="6.05437">
        <ele>1128</ele>
        <time>2000-01-01T02:36:43.000Z</time>
      </trkpt>
      <trkpt lat="46.46966" lon="6.05458">
        <ele>1129</ele>
        <time>2000-01-01T02:36:33.000Z</time>
      </trkpt>
      <trkpt lat="46.46986" lon="6.05478">
        <ele>1130</ele>
        <time>2000-01-01T02:36:23.000Z</time>
      </trkpt>
      <trkpt lat="46.47012" lon="6.05515">
        <ele>1130</ele>
        <time>2000-01-01T02:36:13.000Z</time>
      </trkpt>
      <trkpt lat="46.47047" lon="6.05542">
        <ele>1124</ele>
        <time>2000-01-01T02:36:03.000Z</time>
      </trkpt>
      <trkpt lat="46.47097" lon="6.05546">
        <ele>1121.6</ele>
        <time>2000-01-01T02:35:53.000Z</time>
      </trkpt>
      <trkpt lat="46.47105" lon="6.05547">
        <ele>1118</ele>
        <time>2000-01-01T02:35:43.000Z</time>
      </trkpt>
      <trkpt lat="46.47134" lon="6.05539">
        <ele>1112</ele>
        <time>2000-01-01T02:35:33.000Z</time>
      </trkpt>
      <trkpt lat="46.47159" lon="6.05533">
        <ele>1112</ele>
        <time>2000-01-01T02:35:23.000Z</time>
      </trkpt>
      <trkpt lat="46.47196" lon="6.05504">
        <ele>1111</ele>
        <time>2000-01-01T02:35:13.000Z</time>
      </trkpt>
      <trkpt lat="46.4722" lon="6.05484">
        <ele>1110</ele>
        <time>2000-01-01T02:35:03.000Z</time>
      </trkpt>
      <trkpt lat="46.47251" lon="6.05479">
        <ele>1112</ele>
        <time>2000-01-01T02:34:53.000Z</time>
      </trkpt>
      <trkpt lat="46.47283" lon="6.05472">
        <ele>1119</ele>
        <time>2000-01-01T02:34:43.000Z</time>
      </trkpt>
      <trkpt lat="46.47322" lon="6.05463">
        <ele>1126</ele>
        <time>2000-01-01T02:34:33.000Z</time>
      </trkpt>
      <trkpt lat="46.47356" lon="6.05488">
        <ele>1138.2</ele>
        <time>2000-01-01T02:34:23.000Z</time>
      </trkpt>
      <trkpt lat="46.47365" lon="6.05505">
        <ele>1140</ele>
        <time>2000-01-01T02:34:13.000Z</time>
      </trkpt>
      <trkpt lat="46.47387" lon="6.05539">
        <ele>1155</ele>
        <time>2000-01-01T02:34:03.000Z</time>
      </trkpt>
      <trkpt lat="46.47414" lon="6.05584">
        <ele>1155</ele>
        <time>2000-01-01T02:33:53.000Z</time>
      </trkpt>
      <trkpt lat="46.4744" lon="6.05636">
        <ele>1152</ele>
        <time>2000-01-01T02:33:43.000Z</time>
      </trkpt>
      <trkpt lat="46.47455" lon="6.05664">
        <ele>1146</ele>
        <time>2000-01-01T02:33:33.000Z</time>
      </trkpt>
      <trkpt lat="46.4747" lon="6.05691">
        <ele>1141</ele>
        <time>2000-01-01T02:33:23.000Z</time>
      </trkpt>
      <trkpt lat="46.47491" lon="6.05716">
        <ele>1136</ele>
        <time>2000-01-01T02:33:13.000Z</time>
      </trkpt>
      <trkpt lat="46.47511" lon="6.05739">
        <ele>1136</ele>
        <time>2000-01-01T02:33:03.000Z</time>
      </trkpt>
      <trkpt lat="46.4753" lon="6.05761">
        <ele>1133</ele>
        <time>2000-01-01T02:32:53.000Z</time>
      </trkpt>
      <trkpt lat="46.47558" lon="6.05747">
        <ele>1130</ele>
        <time>2000-01-01T02:32:43.000Z</time>
      </trkpt>
      <trkpt lat="46.47597" lon="6.05736">
        <ele>1133</ele>
        <time>2000-01-01T02:32:33.000Z</time>
      </trkpt>
      <trkpt lat="46.4762" lon="6.05728">
        <ele>1133</ele>
        <time>2000-01-01T02:32:23.000Z</time>
      </trkpt>
      <trkpt lat="46.47643" lon="6.05719">
        <ele>1134</ele>
        <time>2000-01-01T02:32:13.000Z</time>
      </trkpt>
      <trkpt lat="46.47687" lon="6.05698">
        <ele>1134</ele>
        <time>2000-01-01T02:32:03.000Z</time>
      </trkpt>
      <trkpt lat="46.4771" lon="6.0571">
        <ele>1138</ele>
        <time>2000-01-01T02:31:53.000Z</time>
      </trkpt>
      <trkpt lat="46.47735" lon="6.05732">
        <ele>1140</ele>
        <time>2000-01-01T02:31:43.000Z</time>
      </trkpt>
      <trkpt lat="46.47771" lon="6.05737">
        <ele>1142</ele>
        <time>2000-01-01T02:31:33.000Z</time>
      </trkpt>
      <trkpt lat="46.47814" lon="6.05742">
        <ele>1138</ele>
        <time>2000-01-01T02:31:23.000Z</time>
      </trkpt>
      <trkpt lat="46.47833" lon="6.05755">
        <ele>1140</ele>
        <time>2000-01-01T02:31:13.000Z</time>
      </trkpt>
      <trkpt lat="46.47854" lon="6.05781">
        <ele>1139</ele>
        <time>2000-01-01T02:31:03.000Z</time>
      </trkpt>
      <trkpt lat="46.47872" lon="6.0581">
        <ele>1140</ele>
        <time>2000-01-01T02:30:53.000Z</time>
      </trkpt>
      <trkpt lat="46.4789" lon="6.0584">
        <ele>1134.5</ele>
        <time>2000-01-01T02:30:43.000Z</time>
      </trkpt>
      <trkpt lat="46.47906" lon="6.05839">
        <ele>1142</ele>
        <time>2000-01-01T02:30:33.000Z</time>
      </trkpt>
      <trkpt lat="46.47926" lon="6.05843">
        <ele>1140</ele>
        <time>2000-01-01T02:30:23.000Z</time>
      </trkpt>
      <trkpt lat="46.47946" lon="6.0584">
        <ele>1133</ele>
        <time>2000-01-01T02:30:13.000Z</time>
      </trkpt>
      <trkpt lat="46.47958" lon="6.05845">
        <ele>1135</ele>
        <time>2000-01-01T02:30:03.000Z</time>
      </trkpt>
      <trkpt lat="46.47973" lon="6.05849">
        <ele>1128</ele>
        <time>2000-01-01T02:29:53.000Z</time>
      </trkpt>
      <trkpt lat="46.47996" lon="6.05838">
        <ele>1125</ele>
        <time>2000-01-01T02:29:43.000Z</time>
      </trkpt>
      <trkpt lat="46.48021" lon="6.05852">
        <ele>1123</ele>
        <time>2000-01-01T02:29:33.000Z</time>
      </trkpt>
      <trkpt lat="46.48044" lon="6.05853">
        <ele>1123</ele>
        <time>2000-01-01T02:29:23.000Z</time>
      </trkpt>
      <trkpt lat="46.48086" lon="6.0586">
        <ele>1132.3</ele>
        <time>2000-01-01T02:29:13.000Z</time>
      </trkpt>
      <trkpt lat="46.48101" lon="6.05872">
        <ele>1132</ele>
        <time>2000-01-01T02:29:03.000Z</time>
      </trkpt>
      <trkpt lat="46.48119" lon="6.05883">
        <ele>1141</ele>
        <time>2000-01-01T02:28:53.000Z</time>
      </trkpt>
      <trkpt lat="46.48134" lon="6.05883">
        <ele>1132</ele>
        <time>2000-01-01T02:28:43.000Z</time>
      </trkpt>
      <trkpt lat="46.48148" lon="6.05895">
        <ele>1140</ele>
        <time>2000-01-01T02:28:33.000Z</time>
      </trkpt>
      <trkpt lat="46.48168" lon="6.05908">
        <ele>1139</ele>
        <time>2000-01-01T02:28:23.000Z</time>
      </trkpt>
      <trkpt lat="46.48183" lon="6.05936">
        <ele>1139</ele>
        <time>2000-01-01T02:28:13.000Z</time>
      </trkpt>
      <trkpt lat="46.48189" lon="6.05967">
        <ele>1127.2</ele>
        <time>2000-01-01T02:28:03.000Z</time>
      </trkpt>
      <trkpt lat="46.48199" lon="6.05984">
        <ele>1139</ele>
        <time>2000-01-01T02:27:53.000Z</time>
      </trkpt>
      <trkpt lat="46.48192" lon="6.06001">
        <ele>1125.7</ele>
        <time>2000-01-01T02:27:43.000Z</time>
      </trkpt>
      <trkpt lat="46.48204" lon="6.06018">
        <ele>1139</ele>
        <time>2000-01-01T02:27:33.000Z</time>
      </trkpt>
      <trkpt lat="46.48229" lon="6.06039">
        <ele>1139</ele>
        <time>2000-01-01T02:27:23.000Z</time>
      </trkpt>
      <trkpt lat="46.48243" lon="6.06074">
        <ele>1123.3</ele>
        <time>2000-01-01T02:27:13.000Z</time>
      </trkpt>
      <trkpt lat="46.48261" lon="6.0608">
        <ele>1123</ele>
        <time>2000-01-01T02:27:03.000Z</time>
      </trkpt>
      <trkpt lat="46.48291" lon="6.06082">
        <ele>1120</ele>
        <time>2000-01-01T02:26:53.000Z</time>
      </trkpt>
      <trkpt lat="46.48326" lon="6.06059">
        <ele>1109</ele>
        <time>2000-01-01T02:26:43.000Z</time>
      </trkpt>
      <trkpt lat="46.48348" lon="6.06038">
        <ele>1107</ele>
        <time>2000-01-01T02:26:33.000Z</time>
      </trkpt>
      <trkpt lat="46.48345" lon="6.06055">
        <ele>1114.3</ele>
        <time>2000-01-01T02:26:23.000Z</time>
      </trkpt>
      <trkpt lat="46.4834" lon="6.06077">
        <ele>1105</ele>
        <time>2000-01-01T02:26:13.000Z</time>
      </trkpt>
      <trkpt lat="46.48351" lon="6.06105">
        <ele>1105</ele>
        <time>2000-01-01T02:26:03.000Z</time>
      </trkpt>
      <trkpt lat="46.48393" lon="6.06165">
        <ele>1121.4</ele>
        <time>2000-01-01T02:25:53.000Z</time>
      </trkpt>
      <trkpt lat="46.48399" lon="6.06181">
        <ele>1116</ele>
        <time>2000-01-01T02:25:43.000Z</time>
      </trkpt>
      <trkpt lat="46.48403" lon="6.06201">
        <ele>1124.4</ele>
        <time>2000-01-01T02:25:33.000Z</time>
      </trkpt>
      <trkpt lat="46.48403" lon="6.0622">
        <ele>1123</ele>
        <time>2000-01-01T02:25:23.000Z</time>
      </trkpt>
      <trkpt lat="46.48406" lon="6.06244">
        <ele>1127.6</ele>
        <time>2000-01-01T02:25:13.000Z</time>
      </trkpt>
      <trkpt lat="46.48412" lon="6.06267">
        <ele>1125</ele>
        <time>2000-01-01T02:25:03.000Z</time>
      </trkpt>
      <trkpt lat="46.48424" lon="6.063">
        <ele>1126</ele>
        <time>2000-01-01T02:24:53.000Z</time>
      </trkpt>
      <trkpt lat="46.48442" lon="6.0635">
        <ele>1137</ele>
        <time>2000-01-01T02:24:43.000Z</time>
      </trkpt>
      <trkpt lat="46.4846" lon="6.06388">
        <ele>1137</ele>
        <time>2000-01-01T02:24:33.000Z</time>
      </trkpt>
      <trkpt lat="46.48476" lon="6.06435">
        <ele>1136</ele>
        <time>2000-01-01T02:24:23.000Z</time>
      </trkpt>
      <trkpt lat="46.48487" lon="6.0648">
        <ele>1124.7</ele>
        <time>2000-01-01T02:24:13.000Z</time>
      </trkpt>
      <trkpt lat="46.48493" lon="6.06497">
        <ele>1130</ele>
        <time>2000-01-01T02:24:03.000Z</time>
      </trkpt>
      <trkpt lat="46.48503" lon="6.06521">
        <ele>1128</ele>
        <time>2000-01-01T02:23:53.000Z</time>
      </trkpt>
      <trkpt lat="46.48514" lon="6.06548">
        <ele>1128</ele>
        <time>2000-01-01T02:23:43.000Z</time>
      </trkpt>
      <trkpt lat="46.48528" lon="6.06593">
        <ele>1127</ele>
        <time>2000-01-01T02:23:33.000Z</time>
      </trkpt>
      <trkpt lat="46.48547" lon="6.06645">
        <ele>1125</ele>
        <time>2000-01-01T02:23:23.000Z</time>
      </trkpt>
      <trkpt lat="46.48558" lon="6.0668">
        <ele>1124</ele>
        <time>2000-01-01T02:23:13.000Z</time>
      </trkpt>
      <trkpt lat="46.48566" lon="6.06707">
        <ele>1123</ele>
        <time>2000-01-01T02:23:03.000Z</time>
      </trkpt>
      <trkpt lat="46.48574" lon="6.06756">
        <ele>1121</ele>
        <time>2000-01-01T02:22:53.000Z</time>
      </trkpt>
      <trkpt lat="46.48578" lon="6.06774">
        <ele>1117.6</ele>
        <time>2000-01-01T02:22:43.000Z</time>
      </trkpt>
      <trkpt lat="46.4857" lon="6.0678">
        <ele>1119</ele>
        <time>2000-01-01T02:22:33.000Z</time>
      </trkpt>
      <trkpt lat="46.48552" lon="6.06784">
        <ele>1118</ele>
        <time>2000-01-01T02:22:23.000Z</time>
      </trkpt>
      <trkpt lat="46.48556" lon="6.06816">
        <ele>1117</ele>
        <time>2000-01-01T02:22:13.000Z</time>
      </trkpt>
      <trkpt lat="46.48562" lon="6.06848">
        <ele>1117</ele>
        <time>2000-01-01T02:22:03.000Z</time>
      </trkpt>
      <trkpt lat="46.48573" lon="6.06895">
        <ele>1121</ele>
        <time>2000-01-01T02:21:53.000Z</time>
      </trkpt>
      <trkpt lat="46.48582" lon="6.06942">
        <ele>1126</ele>
        <time>2000-01-01T02:21:43.000Z</time>
      </trkpt>
      <trkpt lat="46.48595" lon="6.07004">
        <ele>1116</ele>
        <time>2000-01-01T02:21:33.000Z</time>
      </trkpt>
      <trkpt lat="46.48609" lon="6.07057">
        <ele>1111.2</ele>
        <time>2000-01-01T02:21:23.000Z</time>
      </trkpt>
      <trkpt lat="46.48619" lon="6.07074">
        <ele>1112</ele>
        <time>2000-01-01T02:21:13.000Z</time>
      </trkpt>
      <trkpt lat="46.48634" lon="6.07078">
        <ele>1109.6</ele>
        <time>2000-01-01T02:21:03.000Z</time>
      </trkpt>
      <trkpt lat="46.48645" lon="6.07074">
        <ele>1108</ele>
        <time>2000-01-01T02:20:53.000Z</time>
      </trkpt>
      <trkpt lat="46.48658" lon="6.07055">
        <ele>1109.9</ele>
        <time>2000-01-01T02:20:43.000Z</time>
      </trkpt>
      <trkpt lat="46.48662" lon="6.07032">
        <ele>1110</ele>
        <time>2000-01-01T02:20:33.000Z</time>
      </trkpt>
      <trkpt lat="46.4866" lon="6.07">
        <ele>1111</ele>
        <time>2000-01-01T02:20:23.000Z</time>
      </trkpt>
      <trkpt lat="46.48648" lon="6.06963">
        <ele>1115</ele>
        <time>2000-01-01T02:20:13.000Z</time>
      </trkpt>
      <trkpt lat="46.4864" lon="6.06931">
        <ele>1118</ele>
        <time>2000-01-01T02:20:03.000Z</time>
      </trkpt>
      <trkpt lat="46.48646" lon="6.06912">
        <ele>1111.5</ele>
        <time>2000-01-01T02:19:53.000Z</time>
      </trkpt>
      <trkpt lat="46.48653" lon="6.06902">
        <ele>1123</ele>
        <time>2000-01-01T02:19:43.000Z</time>
      </trkpt>
      <trkpt lat="46.48667" lon="6.06897">
        <ele>1109.8</ele>
        <time>2000-01-01T02:19:33.000Z</time>
      </trkpt>
      <trkpt lat="46.48677" lon="6.06901">
        <ele>1109.5</ele>
        <time>2000-01-01T02:19:23.000Z</time>
      </trkpt>
      <trkpt lat="46.48682" lon="6.0691">
        <ele>1123</ele>
        <time>2000-01-01T02:19:13.000Z</time>
      </trkpt>
      <trkpt lat="46.48696" lon="6.06942">
        <ele>1123</ele>
        <time>2000-01-01T02:19:03.000Z</time>
      </trkpt>
      <trkpt lat="46.48712" lon="6.06965">
        <ele>1111</ele>
        <time>2000-01-01T02:18:53.000Z</time>
      </trkpt>
      <trkpt lat="46.48745" lon="6.06981">
        <ele>1111</ele>
        <time>2000-01-01T02:18:43.000Z</time>
      </trkpt>
      <trkpt lat="46.4875" lon="6.06993">
        <ele>1108</ele>
        <time>2000-01-01T02:18:33.000Z</time>
      </trkpt>
      <trkpt lat="46.48765" lon="6.07002">
        <ele>1111</ele>
        <time>2000-01-01T02:18:23.000Z</time>
      </trkpt>
      <trkpt lat="46.48776" lon="6.07027">
        <ele>1108</ele>
        <time>2000-01-01T02:18:13.000Z</time>
      </trkpt>
      <trkpt lat="46.48781" lon="6.07048">
        <ele>1111</ele>
        <time>2000-01-01T02:18:03.000Z</time>
      </trkpt>
      <trkpt lat="46.48806" lon="6.07048">
        <ele>1111</ele>
        <time>2000-01-01T02:17:53.000Z</time>
      </trkpt>
      <trkpt lat="46.4883" lon="6.07049">
        <ele>1112</ele>
        <time>2000-01-01T02:17:43.000Z</time>
      </trkpt>
      <trkpt lat="46.48862" lon="6.07044">
        <ele>1111</ele>
        <time>2000-01-01T02:17:33.000Z</time>
      </trkpt>
      <trkpt lat="46.48888" lon="6.07039">
        <ele>1112.8</ele>
        <time>2000-01-01T02:17:23.000Z</time>
      </trkpt>
      <trkpt lat="46.48904" lon="6.07028">
        <ele>1124</ele>
        <time>2000-01-01T02:17:13.000Z</time>
      </trkpt>
      <trkpt lat="46.48916" lon="6.0707">
        <ele>1118.3</ele>
        <time>2000-01-01T02:17:03.000Z</time>
      </trkpt>
      <trkpt lat="46.48929" lon="6.07087">
        <ele>1134</ele>
        <time>2000-01-01T02:16:53.000Z</time>
      </trkpt>
      <trkpt lat="46.48958" lon="6.07136">
        <ele>1121.8</ele>
        <time>2000-01-01T02:16:43.000Z</time>
      </trkpt>
      <trkpt lat="46.48961" lon="6.07154">
        <ele>1143</ele>
        <time>2000-01-01T02:16:33.000Z</time>
      </trkpt>
      <trkpt lat="46.4897" lon="6.07172">
        <ele>1125</ele>
        <time>2000-01-01T02:16:23.000Z</time>
      </trkpt>
      <trkpt lat="46.48978" lon="6.0718">
        <ele>1143</ele>
        <time>2000-01-01T02:16:13.000Z</time>
      </trkpt>
      <trkpt lat="46.48997" lon="6.07199">
        <ele>1140</ele>
        <time>2000-01-01T02:16:03.000Z</time>
      </trkpt>
      <trkpt lat="46.49017" lon="6.07223">
        <ele>1138</ele>
        <time>2000-01-01T02:15:53.000Z</time>
      </trkpt>
      <trkpt lat="46.49034" lon="6.07257">
        <ele>1134</ele>
        <time>2000-01-01T02:15:43.000Z</time>
      </trkpt>
      <trkpt lat="46.49051" lon="6.07296">
        <ele>1133</ele>
        <time>2000-01-01T02:15:33.000Z</time>
      </trkpt>
      <trkpt lat="46.4907" lon="6.07328">
        <ele>1132</ele>
        <time>2000-01-01T02:15:23.000Z</time>
      </trkpt>
      <trkpt lat="46.49078" lon="6.07351">
        <ele>1120.9</ele>
        <time>2000-01-01T02:15:13.000Z</time>
      </trkpt>
      <trkpt lat="46.49092" lon="6.07365">
        <ele>1131</ele>
        <time>2000-01-01T02:15:03.000Z</time>
      </trkpt>
      <trkpt lat="46.49105" lon="6.07384">
        <ele>1113.6</ele>
        <time>2000-01-01T02:14:53.000Z</time>
      </trkpt>
      <trkpt lat="46.49112" lon="6.07404">
        <ele>1115</ele>
        <time>2000-01-01T02:14:43.000Z</time>
      </trkpt>
      <trkpt lat="46.49121" lon="6.07435">
        <ele>1110</ele>
        <time>2000-01-01T02:14:33.000Z</time>
      </trkpt>
      <trkpt lat="46.49136" lon="6.07456">
        <ele>1106</ele>
        <time>2000-01-01T02:14:23.000Z</time>
      </trkpt>
      <trkpt lat="46.49147" lon="6.0748">
        <ele>1106</ele>
        <time>2000-01-01T02:14:13.000Z</time>
      </trkpt>
      <trkpt lat="46.49165" lon="6.07533">
        <ele>1100.1</ele>
        <time>2000-01-01T02:14:03.000Z</time>
      </trkpt>
      <trkpt lat="46.49182" lon="6.07522">
        <ele>1107</ele>
        <time>2000-01-01T02:13:53.000Z</time>
      </trkpt>
      <trkpt lat="46.49205" lon="6.07566">
        <ele>1104</ele>
        <time>2000-01-01T02:13:43.000Z</time>
      </trkpt>
      <trkpt lat="46.49247" lon="6.07555">
        <ele>1095</ele>
        <time>2000-01-01T02:13:33.000Z</time>
      </trkpt>
      <trkpt lat="46.49282" lon="6.07546">
        <ele>1094</ele>
        <time>2000-01-01T02:13:23.000Z</time>
      </trkpt>
      <trkpt lat="46.49317" lon="6.07536">
        <ele>1093</ele>
        <time>2000-01-01T02:13:13.000Z</time>
      </trkpt>
      <trkpt lat="46.49352" lon="6.07527">
        <ele>1092</ele>
        <time>2000-01-01T02:13:03.000Z</time>
      </trkpt>
      <trkpt lat="46.49388" lon="6.0755">
        <ele>1092</ele>
        <time>2000-01-01T02:12:53.000Z</time>
      </trkpt>
      <trkpt lat="46.49418" lon="6.07593">
        <ele>1081.1</ele>
        <time>2000-01-01T02:12:43.000Z</time>
      </trkpt>
      <trkpt lat="46.49427" lon="6.07605">
        <ele>1091</ele>
        <time>2000-01-01T02:12:33.000Z</time>
      </trkpt>
      <trkpt lat="46.49443" lon="6.07628">
        <ele>1082</ele>
        <time>2000-01-01T02:12:23.000Z</time>
      </trkpt>
      <trkpt lat="46.49467" lon="6.0768">
        <ele>1082</ele>
        <time>2000-01-01T02:12:13.000Z</time>
      </trkpt>
      <trkpt lat="46.49482" lon="6.07714">
        <ele>1083</ele>
        <time>2000-01-01T02:12:03.000Z</time>
      </trkpt>
      <trkpt lat="46.49505" lon="6.07761">
        <ele>1084</ele>
        <time>2000-01-01T02:11:53.000Z</time>
      </trkpt>
      <trkpt lat="46.49516" lon="6.07805">
        <ele>1085</ele>
        <time>2000-01-01T02:11:43.000Z</time>
      </trkpt>
      <trkpt lat="46.49525" lon="6.0784">
        <ele>1083</ele>
        <time>2000-01-01T02:11:33.000Z</time>
      </trkpt>
      <trkpt lat="46.49536" lon="6.07887">
        <ele>1077</ele>
        <time>2000-01-01T02:11:23.000Z</time>
      </trkpt>
      <trkpt lat="46.49584" lon="6.07866">
        <ele>1077</ele>
        <time>2000-01-01T02:11:13.000Z</time>
      </trkpt>
      <trkpt lat="46.49612" lon="6.07854">
        <ele>1073</ele>
        <time>2000-01-01T02:11:03.000Z</time>
      </trkpt>
      <trkpt lat="46.49631" lon="6.07906">
        <ele>1073</ele>
        <time>2000-01-01T02:10:53.000Z</time>
      </trkpt>
      <trkpt lat="46.49646" lon="6.07947">
        <ele>1072</ele>
        <time>2000-01-01T02:10:43.000Z</time>
      </trkpt>
      <trkpt lat="46.49661" lon="6.07988">
        <ele>1072</ele>
        <time>2000-01-01T02:10:33.000Z</time>
      </trkpt>
      <trkpt lat="46.49664" lon="6.08">
        <ele>1058.3</ele>
        <time>2000-01-01T02:10:23.000Z</time>
      </trkpt>
      <trkpt lat="46.49668" lon="6.0802">
        <ele>1072</ele>
        <time>2000-01-01T02:10:13.000Z</time>
      </trkpt>
      <trkpt lat="46.49685" lon="6.08064">
        <ele>1074</ele>
        <time>2000-01-01T02:10:03.000Z</time>
      </trkpt>
      <trkpt lat="46.49697" lon="6.08098">
        <ele>1076</ele>
        <time>2000-01-01T02:09:53.000Z</time>
      </trkpt>
      <trkpt lat="46.4972" lon="6.08159">
        <ele>1073</ele>
        <time>2000-01-01T02:09:43.000Z</time>
      </trkpt>
      <trkpt lat="46.49736" lon="6.08201">
        <ele>1071</ele>
        <time>2000-01-01T02:09:33.000Z</time>
      </trkpt>
      <trkpt lat="46.49751" lon="6.08243">
        <ele>1070</ele>
        <time>2000-01-01T02:09:23.000Z</time>
      </trkpt>
      <trkpt lat="46.49783" lon="6.08174">
        <ele>1067</ele>
        <time>2000-01-01T02:09:13.000Z</time>
      </trkpt>
      <trkpt lat="46.49799" lon="6.08137">
        <ele>1065</ele>
        <time>2000-01-01T02:09:03.000Z</time>
      </trkpt>
      <trkpt lat="46.49805" lon="6.0811">
        <ele>1066</ele>
        <time>2000-01-01T02:08:53.000Z</time>
      </trkpt>
      <trkpt lat="46.49804" lon="6.08079">
        <ele>1067</ele>
        <time>2000-01-01T02:08:43.000Z</time>
      </trkpt>
      <trkpt lat="46.49798" lon="6.08026">
        <ele>1066</ele>
        <time>2000-01-01T02:08:33.000Z</time>
      </trkpt>
      <trkpt lat="46.49806" lon="6.07983">
        <ele>1056.3</ele>
        <time>2000-01-01T02:08:23.000Z</time>
      </trkpt>
      <trkpt lat="46.49816" lon="6.07991">
        <ele>1066</ele>
        <time>2000-01-01T02:08:13.000Z</time>
      </trkpt>
      <trkpt lat="46.49834" lon="6.07965">
        <ele>1067</ele>
        <time>2000-01-01T02:08:03.000Z</time>
      </trkpt>
      <trkpt lat="46.49844" lon="6.07937">
        <ele>1065</ele>
        <time>2000-01-01T02:07:53.000Z</time>
      </trkpt>
      <trkpt lat="46.49856" lon="6.07901">
        <ele>1058</ele>
        <time>2000-01-01T02:07:43.000Z</time>
      </trkpt>
      <trkpt lat="46.49877" lon="6.07864">
        <ele>1056</ele>
        <time>2000-01-01T02:07:33.000Z</time>
      </trkpt>
      <trkpt lat="46.49906" lon="6.07836">
        <ele>1053</ele>
        <time>2000-01-01T02:07:23.000Z</time>
      </trkpt>
      <trkpt lat="46.49926" lon="6.07825">
        <ele>1053</ele>
        <time>2000-01-01T02:07:13.000Z</time>
      </trkpt>
      <trkpt lat="46.49944" lon="6.0783">
        <ele>1053</ele>
        <time>2000-01-01T02:07:03.000Z</time>
      </trkpt>
      <trkpt lat="46.49965" lon="6.07825">
        <ele>1064</ele>
        <time>2000-01-01T02:06:53.000Z</time>
      </trkpt>
      <trkpt lat="46.49995" lon="6.07825">
        <ele>1073</ele>
        <time>2000-01-01T02:06:43.000Z</time>
      </trkpt>
      <trkpt lat="46.5001" lon="6.07801">
        <ele>1081</ele>
        <time>2000-01-01T02:06:33.000Z</time>
      </trkpt>
      <trkpt lat="46.50029" lon="6.07783">
        <ele>1075.7</ele>
        <time>2000-01-01T02:06:23.000Z</time>
      </trkpt>
      <trkpt lat="46.50036" lon="6.07772">
        <ele>1090</ele>
        <time>2000-01-01T02:06:13.000Z</time>
      </trkpt>
      <trkpt lat="46.50069" lon="6.07826">
        <ele>1080.2</ele>
        <time>2000-01-01T02:06:03.000Z</time>
      </trkpt>
      <trkpt lat="46.50078" lon="6.07832">
        <ele>1104</ele>
        <time>2000-01-01T02:05:53.000Z</time>
      </trkpt>
      <trkpt lat="46.50098" lon="6.07856">
        <ele>1104</ele>
        <time>2000-01-01T02:05:43.000Z</time>
      </trkpt>
      <trkpt lat="46.50116" lon="6.07878">
        <ele>1104</ele>
        <time>2000-01-01T02:05:33.000Z</time>
      </trkpt>
      <trkpt lat="46.50138" lon="6.07902">
        <ele>1107</ele>
        <time>2000-01-01T02:05:23.000Z</time>
      </trkpt>
      <trkpt lat="46.50157" lon="6.07923">
        <ele>1107</ele>
        <time>2000-01-01T02:05:13.000Z</time>
      </trkpt>
      <trkpt lat="46.50184" lon="6.07952">
        <ele>1108</ele>
        <time>2000-01-01T02:05:03.000Z</time>
      </trkpt>
      <trkpt lat="46.50206" lon="6.07974">
        <ele>1117</ele>
        <time>2000-01-01T02:04:53.000Z</time>
      </trkpt>
      <trkpt lat="46.50225" lon="6.07995">
        <ele>1117</ele>
        <time>2000-01-01T02:04:43.000Z</time>
      </trkpt>
      <trkpt lat="46.50259" lon="6.08024">
        <ele>1121</ele>
        <time>2000-01-01T02:04:33.000Z</time>
      </trkpt>
      <trkpt lat="46.50287" lon="6.08046">
        <ele>1127</ele>
        <time>2000-01-01T02:04:23.000Z</time>
      </trkpt>
      <trkpt lat="46.50326" lon="6.08077">
        <ele>1145</ele>
        <time>2000-01-01T02:04:13.000Z</time>
      </trkpt>
      <trkpt lat="46.50354" lon="6.08123">
        <ele>1154</ele>
        <time>2000-01-01T02:04:03.000Z</time>
      </trkpt>
      <trkpt lat="46.50372" lon="6.08134">
        <ele>1163</ele>
        <time>2000-01-01T02:03:53.000Z</time>
      </trkpt>
      <trkpt lat="46.50401" lon="6.08158">
        <ele>1162</ele>
        <time>2000-01-01T02:03:43.000Z</time>
      </trkpt>
      <trkpt lat="46.50428" lon="6.08199">
        <ele>1173</ele>
        <time>2000-01-01T02:03:33.000Z</time>
      </trkpt>
      <trkpt lat="46.50455" lon="6.08233">
        <ele>1151</ele>
        <time>2000-01-01T02:03:23.000Z</time>
      </trkpt>
      <trkpt lat="46.50469" lon="6.08236">
        <ele>1173</ele>
        <time>2000-01-01T02:03:13.000Z</time>
      </trkpt>
      <trkpt lat="46.50501" lon="6.0823">
        <ele>1181</ele>
        <time>2000-01-01T02:03:03.000Z</time>
      </trkpt>
      <trkpt lat="46.50523" lon="6.08208">
        <ele>1175</ele>
        <time>2000-01-01T02:02:53.000Z</time>
      </trkpt>
      <trkpt lat="46.50539" lon="6.08207">
        <ele>1190</ele>
        <time>2000-01-01T02:02:43.000Z</time>
      </trkpt>
      <trkpt lat="46.50561" lon="6.08216">
        <ele>1180.9</ele>
        <time>2000-01-01T02:02:33.000Z</time>
      </trkpt>
      <trkpt lat="46.5057" lon="6.08193">
        <ele>1184.6</ele>
        <time>2000-01-01T02:02:23.000Z</time>
      </trkpt>
      <trkpt lat="46.5057" lon="6.08193">
        <ele>1199</ele>
        <time>2000-01-01T02:02:13.000Z</time>
      </trkpt>
      <trkpt lat="46.50572" lon="6.08157">
        <ele>1208</ele>
        <time>2000-01-01T02:02:03.000Z</time>
      </trkpt>
      <trkpt lat="46.5056" lon="6.08099">
        <ele>1205</ele>
        <time>2000-01-01T02:01:53.000Z</time>
      </trkpt>
      <trkpt lat="46.50559" lon="6.08043">
        <ele>1203</ele>
        <time>2000-01-01T02:01:43.000Z</time>
      </trkpt>
      <trkpt lat="46.5055" lon="6.0801">
        <ele>1206</ele>
        <time>2000-01-01T02:01:33.000Z</time>
      </trkpt>
      <trkpt lat="46.50529" lon="6.07963">
        <ele>1206</ele>
        <time>2000-01-01T02:01:23.000Z</time>
      </trkpt>
      <trkpt lat="46.50545" lon="6.07947">
        <ele>1206</ele>
        <time>2000-01-01T02:01:13.000Z</time>
      </trkpt>
      <trkpt lat="46.50555" lon="6.07924">
        <ele>1204.4</ele>
        <time>2000-01-01T02:01:03.000Z</time>
      </trkpt>
      <trkpt lat="46.50555" lon="6.07899">
        <ele>1216</ele>
        <time>2000-01-01T02:00:53.000Z</time>
      </trkpt>
      <trkpt lat="46.50544" lon="6.07862">
        <ele>1218</ele>
        <time>2000-01-01T02:00:43.000Z</time>
      </trkpt>
      <trkpt lat="46.50534" lon="6.0783">
        <ele>1220</ele>
        <time>2000-01-01T02:00:33.000Z</time>
      </trkpt>
      <trkpt lat="46.50526" lon="6.07807">
        <ele>1212</ele>
        <time>2000-01-01T02:00:23.000Z</time>
      </trkpt>
      <trkpt lat="46.50533" lon="6.07802">
        <ele>1226</ele>
        <time>2000-01-01T02:00:13.000Z</time>
      </trkpt>
      <trkpt lat="46.50557" lon="6.07818">
        <ele>1232</ele>
        <time>2000-01-01T02:00:03.000Z</time>
      </trkpt>
      <trkpt lat="46.50588" lon="6.07792">
        <ele>1239</ele>
        <time>2000-01-01T01:59:53.000Z</time>
      </trkpt>
      <trkpt lat="46.50621" lon="6.07761">
        <ele>1239</ele>
        <time>2000-01-01T01:59:43.000Z</time>
      </trkpt>
      <trkpt lat="46.50661" lon="6.07743">
        <ele>1246</ele>
        <time>2000-01-01T01:59:33.000Z</time>
      </trkpt>
      <trkpt lat="46.50656" lon="6.07706">
        <ele>1239.6</ele>
        <time>2000-01-01T01:59:23.000Z</time>
      </trkpt>
      <trkpt lat="46.50638" lon="6.07702">
        <ele>1247</ele>
        <time>2000-01-01T01:59:13.000Z</time>
      </trkpt>
      <trkpt lat="46.50629" lon="6.07677">
        <ele>1249</ele>
        <time>2000-01-01T01:59:03.000Z</time>
      </trkpt>
      <trkpt lat="46.50597" lon="6.07629">
        <ele>1246</ele>
        <time>2000-01-01T01:58:53.000Z</time>
      </trkpt>
      <trkpt lat="46.50639" lon="6.07622">
        <ele>1252</ele>
        <time>2000-01-01T01:58:43.000Z</time>
      </trkpt>
      <trkpt lat="46.50667" lon="6.07618">
        <ele>1255</ele>
        <time>2000-01-01T01:58:33.000Z</time>
      </trkpt>
      <trkpt lat="46.50706" lon="6.07615">
        <ele>1259</ele>
        <time>2000-01-01T01:58:23.000Z</time>
      </trkpt>
      <trkpt lat="46.50744" lon="6.07613">
        <ele>1274</ele>
        <time>2000-01-01T01:58:13.000Z</time>
      </trkpt>
      <trkpt lat="46.50781" lon="6.07611">
        <ele>1278</ele>
        <time>2000-01-01T01:58:03.000Z</time>
      </trkpt>
      <trkpt lat="46.50818" lon="6.07609">
        <ele>1283</ele>
        <time>2000-01-01T01:57:53.000Z</time>
      </trkpt>
      <trkpt lat="46.50855" lon="6.07607">
        <ele>1282</ele>
        <time>2000-01-01T01:57:43.000Z</time>
      </trkpt>
      <trkpt lat="46.50869" lon="6.07563">
        <ele>1282</ele>
        <time>2000-01-01T01:57:33.000Z</time>
      </trkpt>
      <trkpt lat="46.5088" lon="6.07528">
        <ele>1282</ele>
        <time>2000-01-01T01:57:23.000Z</time>
      </trkpt>
      <trkpt lat="46.50892" lon="6.07491">
        <ele>1282</ele>
        <time>2000-01-01T01:57:13.000Z</time>
      </trkpt>
      <trkpt lat="46.50874" lon="6.07461">
        <ele>1280</ele>
        <time>2000-01-01T01:57:03.000Z</time>
      </trkpt>
      <trkpt lat="46.50858" lon="6.07434">
        <ele>1278</ele>
        <time>2000-01-01T01:56:53.000Z</time>
      </trkpt>
      <trkpt lat="46.50917" lon="6.07466">
        <ele>1277.8</ele>
        <time>2000-01-01T01:56:43.000Z</time>
      </trkpt>
      <trkpt lat="46.50929" lon="6.07459">
        <ele>1277</ele>
        <time>2000-01-01T01:56:33.000Z</time>
      </trkpt>
      <trkpt lat="46.509" lon="6.07405">
        <ele>1277</ele>
        <time>2000-01-01T01:56:23.000Z</time>
      </trkpt>
      <trkpt lat="46.50882" lon="6.07372">
        <ele>1277</ele>
        <time>2000-01-01T01:56:13.000Z</time>
      </trkpt>
      <trkpt lat="46.50869" lon="6.07336">
        <ele>1278</ele>
        <time>2000-01-01T01:56:03.000Z</time>
      </trkpt>
      <trkpt lat="46.50857" lon="6.07304">
        <ele>1278</ele>
        <time>2000-01-01T01:55:53.000Z</time>
      </trkpt>
      <trkpt lat="46.5083" lon="6.07267">
        <ele>1278</ele>
        <time>2000-01-01T01:55:43.000Z</time>
      </trkpt>
      <trkpt lat="46.5081" lon="6.07241">
        <ele>1278</ele>
        <time>2000-01-01T01:55:33.000Z</time>
      </trkpt>
    </trkseg>
  </trk>
  <trk>
    <name><![CDATA[sdfg_2]]></name>
    <trkseg>
      <trkpt lat="46.5081" lon="6.07241">
        <ele>1278</ele>
        <time>2000-01-01T01:55:33.000Z</time>
      </trkpt>
      <trkpt lat="46.50781" lon="6.07205">
        <ele>1274</ele>
        <time>2000-01-01T01:55:23.000Z</time>
      </trkpt>
      <trkpt lat="46.5076" lon="6.0718">
        <ele>1262</ele>
        <time>2000-01-01T01:55:13.000Z</time>
      </trkpt>
      <trkpt lat="46.50738" lon="6.07142">
        <ele>1259</ele>
        <time>2000-01-01T01:55:03.000Z</time>
      </trkpt>
      <trkpt lat="46.50722" lon="6.07081">
        <ele>1259</ele>
        <time>2000-01-01T01:54:53.000Z</time>
      </trkpt>
      <trkpt lat="46.50668" lon="6.07027">
        <ele>1259</ele>
        <time>2000-01-01T01:54:43.000Z</time>
      </trkpt>
      <trkpt lat="46.5064" lon="6.06998">
        <ele>1258</ele>
        <time>2000-01-01T01:54:33.000Z</time>
      </trkpt>
      <trkpt lat="46.50612" lon="6.0697">
        <ele>1261</ele>
        <time>2000-01-01T01:54:23.000Z</time>
      </trkpt>
      <trkpt lat="46.50602" lon="6.06935">
        <ele>1258</ele>
        <time>2000-01-01T01:54:13.000Z</time>
      </trkpt>
      <trkpt lat="46.50582" lon="6.06889">
        <ele>1258</ele>
        <time>2000-01-01T01:54:03.000Z</time>
      </trkpt>
      <trkpt lat="46.50568" lon="6.06856">
        <ele>1258</ele>
        <time>2000-01-01T01:53:53.000Z</time>
      </trkpt>
      <trkpt lat="46.5054" lon="6.06797">
        <ele>1255</ele>
        <time>2000-01-01T01:53:43.000Z</time>
      </trkpt>
      <trkpt lat="46.50523" lon="6.06763">
        <ele>1252</ele>
        <time>2000-01-01T01:53:33.000Z</time>
      </trkpt>
      <trkpt lat="46.50498" lon="6.06776">
        <ele>1250</ele>
        <time>2000-01-01T01:53:23.000Z</time>
      </trkpt>
      <trkpt lat="46.50473" lon="6.06741">
        <ele>1260</ele>
        <time>2000-01-01T01:53:13.000Z</time>
      </trkpt>
      <trkpt lat="46.50437" lon="6.0672">
        <ele>1260</ele>
        <time>2000-01-01T01:53:03.000Z</time>
      </trkpt>
      <trkpt lat="46.50398" lon="6.06691">
        <ele>1261</ele>
        <time>2000-01-01T01:52:53.000Z</time>
      </trkpt>
      <trkpt lat="46.50369" lon="6.06669">
        <ele>1256</ele>
        <time>2000-01-01T01:52:43.000Z</time>
      </trkpt>
      <trkpt lat="46.5034" lon="6.06648">
        <ele>1235</ele>
        <time>2000-01-01T01:52:33.000Z</time>
      </trkpt>
      <trkpt lat="46.50331" lon="6.06589">
        <ele>1233</ele>
        <time>2000-01-01T01:52:23.000Z</time>
      </trkpt>
      <trkpt lat="46.50322" lon="6.06557">
        <ele>1231</ele>
        <time>2000-01-01T01:52:13.000Z</time>
      </trkpt>
      <trkpt lat="46.50312" lon="6.06525">
        <ele>1233</ele>
        <time>2000-01-01T01:52:03.000Z</time>
      </trkpt>
      <trkpt lat="46.503" lon="6.06486">
        <ele>1235</ele>
        <time>2000-01-01T01:51:53.000Z</time>
      </trkpt>
      <trkpt lat="46.50289" lon="6.06453">
        <ele>1248</ele>
        <time>2000-01-01T01:51:43.000Z</time>
      </trkpt>
      <trkpt lat="46.50287" lon="6.0642">
        <ele>1248</ele>
        <time>2000-01-01T01:51:33.000Z</time>
      </trkpt>
      <trkpt lat="46.50306" lon="6.06397">
        <ele>1249</ele>
        <time>2000-01-01T01:51:23.000Z</time>
      </trkpt>
      <trkpt lat="46.50342" lon="6.06387">
        <ele>1246</ele>
        <time>2000-01-01T01:51:13.000Z</time>
      </trkpt>
      <trkpt lat="46.50378" lon="6.06389">
        <ele>1241</ele>
        <time>2000-01-01T01:51:03.000Z</time>
      </trkpt>
      <trkpt lat="46.50395" lon="6.06376">
        <ele>1240</ele>
        <time>2000-01-01T01:50:53.000Z</time>
      </trkpt>
      <trkpt lat="46.5041" lon="6.0635">
        <ele>1245.4</ele>
        <time>2000-01-01T01:50:43.000Z</time>
      </trkpt>
      <trkpt lat="46.5042" lon="6.0633">
        <ele>1240</ele>
        <time>2000-01-01T01:50:33.000Z</time>
      </trkpt>
      <trkpt lat="46.50405" lon="6.0627">
        <ele>1249</ele>
        <time>2000-01-01T01:50:23.000Z</time>
      </trkpt>
      <trkpt lat="46.50388" lon="6.06224">
        <ele>1260</ele>
        <time>2000-01-01T01:50:13.000Z</time>
      </trkpt>
      <trkpt lat="46.5036" lon="6.06182">
        <ele>1277</ele>
        <time>2000-01-01T01:50:03.000Z</time>
      </trkpt>
      <trkpt lat="46.50334" lon="6.06127">
        <ele>1278</ele>
        <time>2000-01-01T01:49:53.000Z</time>
      </trkpt>
      <trkpt lat="46.50317" lon="6.06093">
        <ele>1280</ele>
        <time>2000-01-01T01:49:43.000Z</time>
      </trkpt>
      <trkpt lat="46.503" lon="6.06049">
        <ele>1280</ele>
        <time>2000-01-01T01:49:33.000Z</time>
      </trkpt>
      <trkpt lat="46.50287" lon="6.06016">
        <ele>1265</ele>
        <time>2000-01-01T01:49:23.000Z</time>
      </trkpt>
      <trkpt lat="46.50288" lon="6.05963">
        <ele>1264</ele>
        <time>2000-01-01T01:49:13.000Z</time>
      </trkpt>
      <trkpt lat="46.50274" lon="6.05927">
        <ele>1263</ele>
        <time>2000-01-01T01:49:03.000Z</time>
      </trkpt>
      <trkpt lat="46.50263" lon="6.05895">
        <ele>1260</ele>
        <time>2000-01-01T01:48:53.000Z</time>
      </trkpt>
      <trkpt lat="46.50265" lon="6.05846">
        <ele>1267</ele>
        <time>2000-01-01T01:48:43.000Z</time>
      </trkpt>
      <trkpt lat="46.50257" lon="6.05814">
        <ele>1269</ele>
        <time>2000-01-01T01:48:33.000Z</time>
      </trkpt>
      <trkpt lat="46.50249" lon="6.05782">
        <ele>1269</ele>
        <time>2000-01-01T01:48:23.000Z</time>
      </trkpt>
      <trkpt lat="46.50228" lon="6.05753">
        <ele>1270</ele>
        <time>2000-01-01T01:48:13.000Z</time>
      </trkpt>
      <trkpt lat="46.50213" lon="6.05718">
        <ele>1268</ele>
        <time>2000-01-01T01:48:03.000Z</time>
      </trkpt>
      <trkpt lat="46.50211" lon="6.05681">
        <ele>1266</ele>
        <time>2000-01-01T01:47:53.000Z</time>
      </trkpt>
      <trkpt lat="46.5025" lon="6.05633">
        <ele>1260</ele>
        <time>2000-01-01T01:47:43.000Z</time>
      </trkpt>
      <trkpt lat="46.50273" lon="6.05606">
        <ele>1278</ele>
        <time>2000-01-01T01:47:33.000Z</time>
      </trkpt>
      <trkpt lat="46.50322" lon="6.05556">
        <ele>1281</ele>
        <time>2000-01-01T01:47:23.000Z</time>
      </trkpt>
      <trkpt lat="46.50347" lon="6.0553">
        <ele>1284</ele>
        <time>2000-01-01T01:47:13.000Z</time>
      </trkpt>
      <trkpt lat="46.50395" lon="6.05492">
        <ele>1284</ele>
        <time>2000-01-01T01:47:03.000Z</time>
      </trkpt>
      <trkpt lat="46.50421" lon="6.0547">
        <ele>1286</ele>
        <time>2000-01-01T01:46:53.000Z</time>
      </trkpt>
      <trkpt lat="46.50447" lon="6.05457">
        <ele>1282</ele>
        <time>2000-01-01T01:46:43.000Z</time>
      </trkpt>
      <trkpt lat="46.5047" lon="6.05446">
        <ele>1279</ele>
        <time>2000-01-01T01:46:33.000Z</time>
      </trkpt>
      <trkpt lat="46.50495" lon="6.0539">
        <ele>1281</ele>
        <time>2000-01-01T01:46:23.000Z</time>
      </trkpt>
      <trkpt lat="46.50531" lon="6.05372">
        <ele>1280</ele>
        <time>2000-01-01T01:46:13.000Z</time>
      </trkpt>
      <trkpt lat="46.50557" lon="6.05359">
        <ele>1282</ele>
        <time>2000-01-01T01:46:03.000Z</time>
      </trkpt>
      <trkpt lat="46.50577" lon="6.05378">
        <ele>1290</ele>
        <time>2000-01-01T01:45:53.000Z</time>
      </trkpt>
      <trkpt lat="46.50596" lon="6.05377">
        <ele>1290</ele>
        <time>2000-01-01T01:45:43.000Z</time>
      </trkpt>
      <trkpt lat="46.50627" lon="6.05395">
        <ele>1294</ele>
        <time>2000-01-01T01:45:33.000Z</time>
      </trkpt>
      <trkpt lat="46.50659" lon="6.05385">
        <ele>1299</ele>
        <time>2000-01-01T01:45:23.000Z</time>
      </trkpt>
      <trkpt lat="46.50686" lon="6.05398">
        <ele>1288</ele>
        <time>2000-01-01T01:45:13.000Z</time>
      </trkpt>
      <trkpt lat="46.5071" lon="6.05409">
        <ele>1287</ele>
        <time>2000-01-01T01:45:03.000Z</time>
      </trkpt>
      <trkpt lat="46.50755" lon="6.05408">
        <ele>1282</ele>
        <time>2000-01-01T01:44:53.000Z</time>
      </trkpt>
      <trkpt lat="46.50776" lon="6.05385">
        <ele>1278</ele>
        <time>2000-01-01T01:44:43.000Z</time>
      </trkpt>
      <trkpt lat="46.50812" lon="6.05375">
        <ele>1276</ele>
        <time>2000-01-01T01:44:33.000Z</time>
      </trkpt>
      <trkpt lat="46.50827" lon="6.05381">
        <ele>1275.9</ele>
        <time>2000-01-01T01:44:23.000Z</time>
      </trkpt>
      <trkpt lat="46.50835" lon="6.05401">
        <ele>1274</ele>
        <time>2000-01-01T01:44:13.000Z</time>
      </trkpt>
      <trkpt lat="46.50863" lon="6.05423">
        <ele>1285</ele>
        <time>2000-01-01T01:44:03.000Z</time>
      </trkpt>
      <trkpt lat="46.50874" lon="6.05457">
        <ele>1285</ele>
        <time>2000-01-01T01:43:53.000Z</time>
      </trkpt>
      <trkpt lat="46.50897" lon="6.0548">
        <ele>1285</ele>
        <time>2000-01-01T01:43:43.000Z</time>
      </trkpt>
      <trkpt lat="46.50911" lon="6.055">
        <ele>1284</ele>
        <time>2000-01-01T01:43:33.000Z</time>
      </trkpt>
      <trkpt lat="46.50919" lon="6.0553">
        <ele>1281</ele>
        <time>2000-01-01T01:43:23.000Z</time>
      </trkpt>
      <trkpt lat="46.5095" lon="6.05547">
        <ele>1277</ele>
        <time>2000-01-01T01:43:13.000Z</time>
      </trkpt>
      <trkpt lat="46.50972" lon="6.05569">
        <ele>1268</ele>
        <time>2000-01-01T01:43:03.000Z</time>
      </trkpt>
      <trkpt lat="46.50996" lon="6.05608">
        <ele>1261</ele>
        <time>2000-01-01T01:42:53.000Z</time>
      </trkpt>
      <trkpt lat="46.51014" lon="6.05617">
        <ele>1261</ele>
        <time>2000-01-01T01:42:43.000Z</time>
      </trkpt>
      <trkpt lat="46.51056" lon="6.05618">
        <ele>1256</ele>
        <time>2000-01-01T01:42:33.000Z</time>
      </trkpt>
      <trkpt lat="46.51077" lon="6.05564">
        <ele>1251</ele>
        <time>2000-01-01T01:42:23.000Z</time>
      </trkpt>
      <trkpt lat="46.51104" lon="6.05554">
        <ele>1246.9</ele>
        <time>2000-01-01T01:42:13.000Z</time>
      </trkpt>
      <trkpt lat="46.51115" lon="6.05535">
        <ele>1249</ele>
        <time>2000-01-01T01:42:03.000Z</time>
      </trkpt>
      <trkpt lat="46.51121" lon="6.05472">
        <ele>1248</ele>
        <time>2000-01-01T01:41:53.000Z</time>
      </trkpt>
      <trkpt lat="46.51126" lon="6.05431">
        <ele>1243</ele>
        <time>2000-01-01T01:41:43.000Z</time>
      </trkpt>
      <trkpt lat="46.5115" lon="6.05411">
        <ele>1238</ele>
        <time>2000-01-01T01:41:33.000Z</time>
      </trkpt>
      <trkpt lat="46.51192" lon="6.05409">
        <ele>1231.1</ele>
        <time>2000-01-01T01:41:23.000Z</time>
      </trkpt>
      <trkpt lat="46.51206" lon="6.05402">
        <ele>1234</ele>
        <time>2000-01-01T01:41:13.000Z</time>
      </trkpt>
      <trkpt lat="46.5122" lon="6.05373">
        <ele>1229</ele>
        <time>2000-01-01T01:41:03.000Z</time>
      </trkpt>
      <trkpt lat="46.51234" lon="6.05346">
        <ele>1227</ele>
        <time>2000-01-01T01:40:53.000Z</time>
      </trkpt>
      <trkpt lat="46.51246" lon="6.05277">
        <ele>1219.3</ele>
        <time>2000-01-01T01:40:43.000Z</time>
      </trkpt>
      <trkpt lat="46.5124" lon="6.05258">
        <ele>1221</ele>
        <time>2000-01-01T01:40:33.000Z</time>
      </trkpt>
      <trkpt lat="46.51251" lon="6.05204">
        <ele>1214.6</ele>
        <time>2000-01-01T01:40:23.000Z</time>
      </trkpt>
      <trkpt lat="46.51244" lon="6.05182">
        <ele>1216</ele>
        <time>2000-01-01T01:40:13.000Z</time>
      </trkpt>
      <trkpt lat="46.51254" lon="6.05123">
        <ele>1212</ele>
        <time>2000-01-01T01:40:03.000Z</time>
      </trkpt>
      <trkpt lat="46.51246" lon="6.05093">
        <ele>1207.8</ele>
        <time>2000-01-01T01:39:53.000Z</time>
      </trkpt>
      <trkpt lat="46.51246" lon="6.05068">
        <ele>1208</ele>
        <time>2000-01-01T01:39:43.000Z</time>
      </trkpt>
      <trkpt lat="46.51265" lon="6.04989">
        <ele>1204</ele>
        <time>2000-01-01T01:39:33.000Z</time>
      </trkpt>
      <trkpt lat="46.51276" lon="6.04948">
        <ele>1200</ele>
        <time>2000-01-01T01:39:23.000Z</time>
      </trkpt>
      <trkpt lat="46.51282" lon="6.0489">
        <ele>1199</ele>
        <time>2000-01-01T01:39:13.000Z</time>
      </trkpt>
      <trkpt lat="46.51286" lon="6.04851">
        <ele>1199</ele>
        <time>2000-01-01T01:39:03.000Z</time>
      </trkpt>
      <trkpt lat="46.5128" lon="6.04818">
        <ele>1199</ele>
        <time>2000-01-01T01:38:53.000Z</time>
      </trkpt>
      <trkpt lat="46.51274" lon="6.04785">
        <ele>1194</ele>
        <time>2000-01-01T01:38:43.000Z</time>
      </trkpt>
      <trkpt lat="46.51268" lon="6.04744">
        <ele>1183</ele>
        <time>2000-01-01T01:38:33.000Z</time>
      </trkpt>
      <trkpt lat="46.51263" lon="6.04709">
        <ele>1179</ele>
        <time>2000-01-01T01:38:23.000Z</time>
      </trkpt>
      <trkpt lat="46.51279" lon="6.04672">
        <ele>1175</ele>
        <time>2000-01-01T01:38:13.000Z</time>
      </trkpt>
      <trkpt lat="46.51322" lon="6.04663">
        <ele>1182</ele>
        <time>2000-01-01T01:38:03.000Z</time>
      </trkpt>
      <trkpt lat="46.51345" lon="6.04641">
        <ele>1190</ele>
        <time>2000-01-01T01:37:53.000Z</time>
      </trkpt>
      <trkpt lat="46.51365" lon="6.04616">
        <ele>1187</ele>
        <time>2000-01-01T01:37:43.000Z</time>
      </trkpt>
      <trkpt lat="46.5139" lon="6.04618">
        <ele>1186</ele>
        <time>2000-01-01T01:37:33.000Z</time>
      </trkpt>
      <trkpt lat="46.51416" lon="6.04629">
        <ele>1185</ele>
        <time>2000-01-01T01:37:23.000Z</time>
      </trkpt>
      <trkpt lat="46.5144" lon="6.04639">
        <ele>1185</ele>
        <time>2000-01-01T01:37:13.000Z</time>
      </trkpt>
      <trkpt lat="46.51479" lon="6.0465">
        <ele>1185</ele>
        <time>2000-01-01T01:37:03.000Z</time>
      </trkpt>
      <trkpt lat="46.5151" lon="6.04636">
        <ele>1184</ele>
        <time>2000-01-01T01:36:53.000Z</time>
      </trkpt>
      <trkpt lat="46.51534" lon="6.04626">
        <ele>1184</ele>
        <time>2000-01-01T01:36:43.000Z</time>
      </trkpt>
      <trkpt lat="46.51573" lon="6.04614">
        <ele>1185</ele>
        <time>2000-01-01T01:36:33.000Z</time>
      </trkpt>
      <trkpt lat="46.516" lon="6.04605">
        <ele>1185</ele>
        <time>2000-01-01T01:36:23.000Z</time>
      </trkpt>
      <trkpt lat="46.51626" lon="6.04583">
        <ele>1182</ele>
        <time>2000-01-01T01:36:13.000Z</time>
      </trkpt>
      <trkpt lat="46.51636" lon="6.04554">
        <ele>1180</ele>
        <time>2000-01-01T01:36:03.000Z</time>
      </trkpt>
      <trkpt lat="46.51647" lon="6.04506">
        <ele>1179</ele>
        <time>2000-01-01T01:35:53.000Z</time>
      </trkpt>
      <trkpt lat="46.51666" lon="6.04481">
        <ele>1178</ele>
        <time>2000-01-01T01:35:43.000Z</time>
      </trkpt>
      <trkpt lat="46.51711" lon="6.04494">
        <ele>1182</ele>
        <time>2000-01-01T01:35:33.000Z</time>
      </trkpt>
      <trkpt lat="46.51742" lon="6.04511">
        <ele>1182</ele>
        <time>2000-01-01T01:35:23.000Z</time>
      </trkpt>
      <trkpt lat="46.51761" lon="6.04528">
        <ele>1186</ele>
        <time>2000-01-01T01:35:13.000Z</time>
      </trkpt>
      <trkpt lat="46.51789" lon="6.04551">
        <ele>1204</ele>
        <time>2000-01-01T01:35:03.000Z</time>
      </trkpt>
      <trkpt lat="46.51811" lon="6.04569">
        <ele>1204</ele>
        <time>2000-01-01T01:34:53.000Z</time>
      </trkpt>
      <trkpt lat="46.51848" lon="6.04604">
        <ele>1204</ele>
        <time>2000-01-01T01:34:43.000Z</time>
      </trkpt>
      <trkpt lat="46.51872" lon="6.04627">
        <ele>1207</ele>
        <time>2000-01-01T01:34:33.000Z</time>
      </trkpt>
      <trkpt lat="46.51894" lon="6.0464">
        <ele>1207</ele>
        <time>2000-01-01T01:34:23.000Z</time>
      </trkpt>
      <trkpt lat="46.51915" lon="6.04654">
        <ele>1209</ele>
        <time>2000-01-01T01:34:13.000Z</time>
      </trkpt>
      <trkpt lat="46.51952" lon="6.04675">
        <ele>1205</ele>
        <time>2000-01-01T01:34:03.000Z</time>
      </trkpt>
      <trkpt lat="46.51974" lon="6.04707">
        <ele>1203</ele>
        <time>2000-01-01T01:33:53.000Z</time>
      </trkpt>
      <trkpt lat="46.52003" lon="6.04746">
        <ele>1201</ele>
        <time>2000-01-01T01:33:43.000Z</time>
      </trkpt>
      <trkpt lat="46.52032" lon="6.04778">
        <ele>1204</ele>
        <time>2000-01-01T01:33:33.000Z</time>
      </trkpt>
      <trkpt lat="46.52067" lon="6.04812">
        <ele>1207</ele>
        <time>2000-01-01T01:33:23.000Z</time>
      </trkpt>
      <trkpt lat="46.52087" lon="6.04829">
        <ele>1207</ele>
        <time>2000-01-01T01:33:13.000Z</time>
      </trkpt>
      <trkpt lat="46.52114" lon="6.04868">
        <ele>1207</ele>
        <time>2000-01-01T01:33:03.000Z</time>
      </trkpt>
      <trkpt lat="46.52145" lon="6.04811">
        <ele>1196</ele>
        <time>2000-01-01T01:32:53.000Z</time>
      </trkpt>
      <trkpt lat="46.52167" lon="6.0477">
        <ele>1188</ele>
        <time>2000-01-01T01:32:43.000Z</time>
      </trkpt>
      <trkpt lat="46.52188" lon="6.04729">
        <ele>1183</ele>
        <time>2000-01-01T01:32:33.000Z</time>
      </trkpt>
      <trkpt lat="46.5221" lon="6.04688">
        <ele>1178</ele>
        <time>2000-01-01T01:32:23.000Z</time>
      </trkpt>
      <trkpt lat="46.52213" lon="6.04632">
        <ele>1179</ele>
        <time>2000-01-01T01:32:13.000Z</time>
      </trkpt>
      <trkpt lat="46.52213" lon="6.04599">
        <ele>1178</ele>
        <time>2000-01-01T01:32:03.000Z</time>
      </trkpt>
      <trkpt lat="46.52218" lon="6.0457">
        <ele>1178</ele>
        <time>2000-01-01T01:31:53.000Z</time>
      </trkpt>
      <trkpt lat="46.52239" lon="6.04552">
        <ele>1176</ele>
        <time>2000-01-01T01:31:43.000Z</time>
      </trkpt>
      <trkpt lat="46.5226" lon="6.04545">
        <ele>1173</ele>
        <time>2000-01-01T01:31:33.000Z</time>
      </trkpt>
      <trkpt lat="46.52274" lon="6.04519">
        <ele>1171</ele>
        <time>2000-01-01T01:31:23.000Z</time>
      </trkpt>
      <trkpt lat="46.52237" lon="6.04486">
        <ele>1167</ele>
        <time>2000-01-01T01:31:13.000Z</time>
      </trkpt>
      <trkpt lat="46.52205" lon="6.04449">
        <ele>1166</ele>
        <time>2000-01-01T01:31:03.000Z</time>
      </trkpt>
      <trkpt lat="46.52175" lon="6.04408">
        <ele>1165</ele>
        <time>2000-01-01T01:30:53.000Z</time>
      </trkpt>
      <trkpt lat="46.52149" lon="6.04373">
        <ele>1165</ele>
        <time>2000-01-01T01:30:43.000Z</time>
      </trkpt>
      <trkpt lat="46.52123" lon="6.04338">
        <ele>1162</ele>
        <time>2000-01-01T01:30:33.000Z</time>
      </trkpt>
      <trkpt lat="46.52097" lon="6.04303">
        <ele>1159</ele>
        <time>2000-01-01T01:30:23.000Z</time>
      </trkpt>
      <trkpt lat="46.52073" lon="6.0426">
        <ele>1158</ele>
        <time>2000-01-01T01:30:13.000Z</time>
      </trkpt>
      <trkpt lat="46.52053" lon="6.04224">
        <ele>1146</ele>
        <time>2000-01-01T01:30:03.000Z</time>
      </trkpt>
      <trkpt lat="46.52034" lon="6.04188">
        <ele>1145</ele>
        <time>2000-01-01T01:29:53.000Z</time>
      </trkpt>
      <trkpt lat="46.52034" lon="6.04146">
        <ele>1141</ele>
        <time>2000-01-01T01:29:43.000Z</time>
      </trkpt>
      <trkpt lat="46.52034" lon="6.04109">
        <ele>1139</ele>
        <time>2000-01-01T01:29:33.000Z</time>
      </trkpt>
      <trkpt lat="46.52008" lon="6.0406">
        <ele>1115.8</ele>
        <time>2000-01-01T01:29:23.000Z</time>
      </trkpt>
      <trkpt lat="46.51991" lon="6.04053">
        <ele>1124</ele>
        <time>2000-01-01T01:29:13.000Z</time>
      </trkpt>
      <trkpt lat="46.5197" lon="6.04019">
        <ele>1109</ele>
        <time>2000-01-01T01:29:03.000Z</time>
      </trkpt>
      <trkpt lat="46.51954" lon="6.03987">
        <ele>1095</ele>
        <time>2000-01-01T01:28:53.000Z</time>
      </trkpt>
      <trkpt lat="46.51933" lon="6.03957">
        <ele>1095</ele>
        <time>2000-01-01T01:28:43.000Z</time>
      </trkpt>
      <trkpt lat="46.51903" lon="6.03923">
        <ele>1061</ele>
        <time>2000-01-01T01:28:33.000Z</time>
      </trkpt>
      <trkpt lat="46.51884" lon="6.03889">
        <ele>1068.9</ele>
        <time>2000-01-01T01:28:23.000Z</time>
      </trkpt>
      <trkpt lat="46.51883" lon="6.0388">
        <ele>1049</ele>
        <time>2000-01-01T01:28:13.000Z</time>
      </trkpt>
      <trkpt lat="46.51903" lon="6.03821">
        <ele>1046</ele>
        <time>2000-01-01T01:28:03.000Z</time>
      </trkpt>
      <trkpt lat="46.51921" lon="6.03786">
        <ele>1046</ele>
        <time>2000-01-01T01:27:53.000Z</time>
      </trkpt>
      <trkpt lat="46.5193" lon="6.03762">
        <ele>1047</ele>
        <time>2000-01-01T01:27:43.000Z</time>
      </trkpt>
      <trkpt lat="46.51926" lon="6.03724">
        <ele>1047</ele>
        <time>2000-01-01T01:27:33.000Z</time>
      </trkpt>
      <trkpt lat="46.51923" lon="6.03689">
        <ele>1052</ele>
        <time>2000-01-01T01:27:23.000Z</time>
      </trkpt>
      <trkpt lat="46.51944" lon="6.03646">
        <ele>1052</ele>
        <time>2000-01-01T01:27:13.000Z</time>
      </trkpt>
      <trkpt lat="46.51959" lon="6.03627">
        <ele>1052</ele>
        <time>2000-01-01T01:27:03.000Z</time>
      </trkpt>
      <trkpt lat="46.51966" lon="6.03578">
        <ele>1053</ele>
        <time>2000-01-01T01:26:53.000Z</time>
      </trkpt>
      <trkpt lat="46.51967" lon="6.03537">
        <ele>1057</ele>
        <time>2000-01-01T01:26:43.000Z</time>
      </trkpt>
      <trkpt lat="46.51969" lon="6.03501">
        <ele>1060</ele>
        <time>2000-01-01T01:26:33.000Z</time>
      </trkpt>
      <trkpt lat="46.51969" lon="6.03456">
        <ele>1063</ele>
        <time>2000-01-01T01:26:23.000Z</time>
      </trkpt>
      <trkpt lat="46.51969" lon="6.03419">
        <ele>1065</ele>
        <time>2000-01-01T01:26:13.000Z</time>
      </trkpt>
      <trkpt lat="46.51972" lon="6.03366">
        <ele>1047.2</ele>
        <time>2000-01-01T01:26:03.000Z</time>
      </trkpt>
      <trkpt lat="46.51972" lon="6.03366">
        <ele>1067</ele>
        <time>2000-01-01T01:25:53.000Z</time>
      </trkpt>
      <trkpt lat="46.51972" lon="6.0333">
        <ele>1057</ele>
        <time>2000-01-01T01:25:43.000Z</time>
      </trkpt>
      <trkpt lat="46.51961" lon="6.03294">
        <ele>1055</ele>
        <time>2000-01-01T01:25:33.000Z</time>
      </trkpt>
      <trkpt lat="46.51936" lon="6.03329">
        <ele>1054</ele>
        <time>2000-01-01T01:25:23.000Z</time>
      </trkpt>
      <trkpt lat="46.51917" lon="6.03357">
        <ele>1054</ele>
        <time>2000-01-01T01:25:13.000Z</time>
      </trkpt>
      <trkpt lat="46.51892" lon="6.0339">
        <ele>1052</ele>
        <time>2000-01-01T01:25:03.000Z</time>
      </trkpt>
      <trkpt lat="46.51878" lon="6.034">
        <ele>1040.6</ele>
        <time>2000-01-01T01:24:53.000Z</time>
      </trkpt>
      <trkpt lat="46.51866" lon="6.03407">
        <ele>1050</ele>
        <time>2000-01-01T01:24:43.000Z</time>
      </trkpt>
      <trkpt lat="46.51834" lon="6.0341">
        <ele>1042</ele>
        <time>2000-01-01T01:24:33.000Z</time>
      </trkpt>
      <trkpt lat="46.51818" lon="6.03372">
        <ele>1029</ele>
        <time>2000-01-01T01:24:23.000Z</time>
      </trkpt>
      <trkpt lat="46.51795" lon="6.03321">
        <ele>1018</ele>
        <time>2000-01-01T01:24:13.000Z</time>
      </trkpt>
      <trkpt lat="46.5176" lon="6.03279">
        <ele>1011</ele>
        <time>2000-01-01T01:24:03.000Z</time>
      </trkpt>
      <trkpt lat="46.5172" lon="6.03244">
        <ele>1007</ele>
        <time>2000-01-01T01:23:53.000Z</time>
      </trkpt>
      <trkpt lat="46.51696" lon="6.03222">
        <ele>1004</ele>
        <time>2000-01-01T01:23:43.000Z</time>
      </trkpt>
      <trkpt lat="46.51662" lon="6.03202">
        <ele>1001</ele>
        <time>2000-01-01T01:23:33.000Z</time>
      </trkpt>
      <trkpt lat="46.51638" lon="6.03187">
        <ele>997</ele>
        <time>2000-01-01T01:23:23.000Z</time>
      </trkpt>
      <trkpt lat="46.51623" lon="6.03173">
        <ele>988.2</ele>
        <time>2000-01-01T01:23:13.000Z</time>
      </trkpt>
      <trkpt lat="46.5161" lon="6.03154">
        <ele>994</ele>
        <time>2000-01-01T01:23:03.000Z</time>
      </trkpt>
      <trkpt lat="46.51601" lon="6.03132">
        <ele>983.5</ele>
        <time>2000-01-01T01:22:53.000Z</time>
      </trkpt>
      <trkpt lat="46.516" lon="6.03106">
        <ele>995</ele>
        <time>2000-01-01T01:22:43.000Z</time>
      </trkpt>
      <trkpt lat="46.51609" lon="6.03091">
        <ele>982.6</ele>
        <time>2000-01-01T01:22:33.000Z</time>
      </trkpt>
      <trkpt lat="46.51615" lon="6.03083">
        <ele>994</ele>
        <time>2000-01-01T01:22:23.000Z</time>
      </trkpt>
      <trkpt lat="46.51644" lon="6.03084">
        <ele>983</ele>
        <time>2000-01-01T01:22:13.000Z</time>
      </trkpt>
      <trkpt lat="46.51685" lon="6.03088">
        <ele>971</ele>
        <time>2000-01-01T01:22:03.000Z</time>
      </trkpt>
      <trkpt lat="46.5173" lon="6.03092">
        <ele>957</ele>
        <time>2000-01-01T01:21:53.000Z</time>
      </trkpt>
      <trkpt lat="46.51772" lon="6.03087">
        <ele>948</ele>
        <time>2000-01-01T01:21:43.000Z</time>
      </trkpt>
      <trkpt lat="46.518" lon="6.03087">
        <ele>937</ele>
        <time>2000-01-01T01:21:33.000Z</time>
      </trkpt>
      <trkpt lat="46.51825" lon="6.03087">
        <ele>935</ele>
        <time>2000-01-01T01:21:23.000Z</time>
      </trkpt>
      <trkpt lat="46.51869" lon="6.031">
        <ele>927.9</ele>
        <time>2000-01-01T01:21:13.000Z</time>
      </trkpt>
      <trkpt lat="46.51886" lon="6.03097">
        <ele>921</ele>
        <time>2000-01-01T01:21:03.000Z</time>
      </trkpt>
      <trkpt lat="46.51918" lon="6.03093">
        <ele>918</ele>
        <time>2000-01-01T01:20:53.000Z</time>
      </trkpt>
      <trkpt lat="46.51944" lon="6.03091">
        <ele>902</ele>
        <time>2000-01-01T01:20:43.000Z</time>
      </trkpt>
      <trkpt lat="46.51988" lon="6.03086">
        <ele>902</ele>
        <time>2000-01-01T01:20:33.000Z</time>
      </trkpt>
      <trkpt lat="46.52016" lon="6.03083">
        <ele>892</ele>
        <time>2000-01-01T01:20:23.000Z</time>
      </trkpt>
      <trkpt lat="46.52064" lon="6.03084">
        <ele>883.4</ele>
        <time>2000-01-01T01:20:13.000Z</time>
      </trkpt>
      <trkpt lat="46.52079" lon="6.03068">
        <ele>876</ele>
        <time>2000-01-01T01:20:03.000Z</time>
      </trkpt>
      <trkpt lat="46.52087" lon="6.03043">
        <ele>867</ele>
        <time>2000-01-01T01:19:53.000Z</time>
      </trkpt>
      <trkpt lat="46.52079" lon="6.03031">
        <ele>865</ele>
        <time>2000-01-01T01:19:43.000Z</time>
      </trkpt>
      <trkpt lat="46.52066" lon="6.03017">
        <ele>859.5</ele>
        <time>2000-01-01T01:19:33.000Z</time>
      </trkpt>
      <trkpt lat="46.52052" lon="6.03006">
        <ele>855</ele>
        <time>2000-01-01T01:19:23.000Z</time>
      </trkpt>
      <trkpt lat="46.52023" lon="6.03003">
        <ele>858.2</ele>
        <time>2000-01-01T01:19:13.000Z</time>
      </trkpt>
      <trkpt lat="46.52009" lon="6.02995">
        <ele>852</ele>
        <time>2000-01-01T01:19:03.000Z</time>
      </trkpt>
      <trkpt lat="46.5198" lon="6.02959">
        <ele>849</ele>
        <time>2000-01-01T01:18:53.000Z</time>
      </trkpt>
      <trkpt lat="46.51946" lon="6.02937">
        <ele>840</ele>
        <time>2000-01-01T01:18:43.000Z</time>
      </trkpt>
      <trkpt lat="46.51912" lon="6.02909">
        <ele>826.4</ele>
        <time>2000-01-01T01:18:33.000Z</time>
      </trkpt>
      <trkpt lat="46.519" lon="6.02895">
        <ele>835</ele>
        <time>2000-01-01T01:18:23.000Z</time>
      </trkpt>
      <trkpt lat="46.51902" lon="6.02867">
        <ele>815</ele>
        <time>2000-01-01T01:18:13.000Z</time>
      </trkpt>
      <trkpt lat="46.51919" lon="6.02843">
        <ele>802</ele>
        <time>2000-01-01T01:18:03.000Z</time>
      </trkpt>
      <trkpt lat="46.51934" lon="6.02822">
        <ele>802</ele>
        <time>2000-01-01T01:17:53.000Z</time>
      </trkpt>
      <trkpt lat="46.51951" lon="6.02797">
        <ele>788</ele>
        <time>2000-01-01T01:17:43.000Z</time>
      </trkpt>
      <trkpt lat="46.5196" lon="6.02766">
        <ele>788</ele>
        <time>2000-01-01T01:17:33.000Z</time>
      </trkpt>
      <trkpt lat="46.51971" lon="6.02763">
        <ele>783.3</ele>
        <time>2000-01-01T01:17:23.000Z</time>
      </trkpt>
      <trkpt lat="46.51977" lon="6.02758">
        <ele>783.1</ele>
        <time>2000-01-01T01:17:13.000Z</time>
      </trkpt>
      <trkpt lat="46.51977" lon="6.02743">
        <ele>786</ele>
        <time>2000-01-01T01:17:03.000Z</time>
      </trkpt>
      <trkpt lat="46.51969" lon="6.02725">
        <ele>777.2</ele>
        <time>2000-01-01T01:16:53.000Z</time>
      </trkpt>
      <trkpt lat="46.51957" lon="6.02714">
        <ele>771</ele>
        <time>2000-01-01T01:16:43.000Z</time>
      </trkpt>
      <trkpt lat="46.51938" lon="6.02711">
        <ele>767.9</ele>
        <time>2000-01-01T01:16:33.000Z</time>
      </trkpt>
      <trkpt lat="46.51932" lon="6.02716">
        <ele>767</ele>
        <time>2000-01-01T01:16:23.000Z</time>
      </trkpt>
      <trkpt lat="46.51915" lon="6.02681">
        <ele>750</ele>
        <time>2000-01-01T01:16:13.000Z</time>
      </trkpt>
      <trkpt lat="46.51903" lon="6.02657">
        <ele>733</ele>
        <time>2000-01-01T01:16:03.000Z</time>
      </trkpt>
      <trkpt lat="46.51872" lon="6.02625">
        <ele>721</ele>
        <time>2000-01-01T01:15:53.000Z</time>
      </trkpt>
      <trkpt lat="46.51855" lon="6.02623">
        <ele>734.7</ele>
        <time>2000-01-01T01:15:43.000Z</time>
      </trkpt>
      <trkpt lat="46.51841" lon="6.02609">
        <ele>715</ele>
        <time>2000-01-01T01:15:33.000Z</time>
      </trkpt>
      <trkpt lat="46.51809" lon="6.02558">
        <ele>721.9</ele>
        <time>2000-01-01T01:15:23.000Z</time>
      </trkpt>
      <trkpt lat="46.51809" lon="6.02548">
        <ele>710</ele>
        <time>2000-01-01T01:15:13.000Z</time>
      </trkpt>
      <trkpt lat="46.51816" lon="6.0251">
        <ele>710</ele>
        <time>2000-01-01T01:15:03.000Z</time>
      </trkpt>
      <trkpt lat="46.5182" lon="6.02466">
        <ele>714.2</ele>
        <time>2000-01-01T01:14:53.000Z</time>
      </trkpt>
      <trkpt lat="46.51814" lon="6.02445">
        <ele>710</ele>
        <time>2000-01-01T01:14:43.000Z</time>
      </trkpt>
      <trkpt lat="46.51824" lon="6.02407">
        <ele>713</ele>
        <time>2000-01-01T01:14:33.000Z</time>
      </trkpt>
      <trkpt lat="46.51808" lon="6.02411">
        <ele>712.1</ele>
        <time>2000-01-01T01:14:23.000Z</time>
      </trkpt>
      <trkpt lat="46.51808" lon="6.02411">
        <ele>712.1</ele>
        <time>2000-01-01T01:14:13.000Z</time>
      </trkpt>
      <trkpt lat="46.51806" lon="6.02406">
        <ele>712.7</ele>
        <time>2000-01-01T01:14:03.000Z</time>
      </trkpt>
      <trkpt lat="46.51803" lon="6.02392">
        <ele>715</ele>
        <time>2000-01-01T01:13:53.000Z</time>
      </trkpt>
      <trkpt lat="46.51797" lon="6.02388">
        <ele>714.9</ele>
        <time>2000-01-01T01:13:43.000Z</time>
      </trkpt>
      <trkpt lat="46.51779" lon="6.02387">
        <ele>724</ele>
        <time>2000-01-01T01:13:33.000Z</time>
      </trkpt>
      <trkpt lat="46.51754" lon="6.02387">
        <ele>717.6</ele>
        <time>2000-01-01T01:13:23.000Z</time>
      </trkpt>
      <trkpt lat="46.51748" lon="6.02383">
        <ele>728</ele>
        <time>2000-01-01T01:13:13.000Z</time>
      </trkpt>
      <trkpt lat="46.51753" lon="6.02355">
        <ele>730</ele>
        <time>2000-01-01T01:13:03.000Z</time>
      </trkpt>
      <trkpt lat="46.51752" lon="6.02334">
        <ele>722.8</ele>
        <time>2000-01-01T01:12:53.000Z</time>
      </trkpt>
      <trkpt lat="46.51752" lon="6.02319">
        <ele>733</ele>
        <time>2000-01-01T01:12:43.000Z</time>
      </trkpt>
      <trkpt lat="46.51761" lon="6.02318">
        <ele>724.6</ele>
        <time>2000-01-01T01:12:33.000Z</time>
      </trkpt>
      <trkpt lat="46.51771" lon="6.02337">
        <ele>733</ele>
        <time>2000-01-01T01:12:23.000Z</time>
      </trkpt>
      <trkpt lat="46.5179" lon="6.02326">
        <ele>733</ele>
        <time>2000-01-01T01:12:13.000Z</time>
      </trkpt>
      <trkpt lat="46.51796" lon="6.02314">
        <ele>723.2</ele>
        <time>2000-01-01T01:12:03.000Z</time>
      </trkpt>
      <trkpt lat="46.51788" lon="6.02301">
        <ele>736</ele>
        <time>2000-01-01T01:11:53.000Z</time>
      </trkpt>
      <trkpt lat="46.5181" lon="6.02284">
        <ele>726.9</ele>
        <time>2000-01-01T01:11:43.000Z</time>
      </trkpt>
      <trkpt lat="46.51817" lon="6.02267">
        <ele>739</ele>
        <time>2000-01-01T01:11:33.000Z</time>
      </trkpt>
      <trkpt lat="46.51786" lon="6.0227">
        <ele>730.3</ele>
        <time>2000-01-01T01:11:23.000Z</time>
      </trkpt>
      <trkpt lat="46.51773" lon="6.02264">
        <ele>741</ele>
        <time>2000-01-01T01:11:13.000Z</time>
      </trkpt>
      <trkpt lat="46.51764" lon="6.02218">
        <ele>743</ele>
        <time>2000-01-01T01:11:03.000Z</time>
      </trkpt>
      <trkpt lat="46.51716" lon="6.02241">
        <ele>744</ele>
        <time>2000-01-01T01:10:53.000Z</time>
      </trkpt>
      <trkpt lat="46.51688" lon="6.02254">
        <ele>746</ele>
        <time>2000-01-01T01:10:43.000Z</time>
      </trkpt>
      <trkpt lat="46.51688" lon="6.02254">
        <ele>746</ele>
        <time>2000-01-01T01:10:43.000Z</time>
      </trkpt>
    </trkseg>
  </trk>
</gpx>